Year,Month,Day,Hour,Minute,Value (Times are PST for temperature in C)
2015,12,06,00,01,9.90
2015,12,06,00,02,9.90
2015,12,06,00,03,9.90
2015,12,06,00,04,9.90
2015,12,06,00,06,9.90
2015,12,06,00,07,9.90
2015,12,06,00,09,9.90
2015,12,06,00,10,9.90
2015,12,06,00,12,9.90
2015,12,06,00,13,9.90
2015,12,06,00,14,9.90
2015,12,06,00,16,9.90
2015,12,06,00,17,9.90
2015,12,06,00,18,9.90
2015,12,06,00,19,9.90
2015,12,06,00,21,9.90
2015,12,06,00,22,9.90
2015,12,06,00,23,9.90
2015,12,06,00,24,9.90
2015,12,06,00,26,9.90
2015,12,06,00,27,9.90
2015,12,06,00,28,9.90
2015,12,06,00,29,9.90
2015,12,06,00,31,9.90
2015,12,06,00,32,9.90
2015,12,06,00,33,9.90
2015,12,06,00,34,9.90
2015,12,06,00,36,9.90
2015,12,06,00,37,9.90
2015,12,06,00,38,9.90
2015,12,06,00,39,9.90
2015,12,06,00,41,9.90
2015,12,06,00,42,9.90
2015,12,06,00,43,9.90
2015,12,06,00,44,9.90
2015,12,06,00,46,9.90
2015,12,06,00,47,9.90
2015,12,06,00,48,9.90
2015,12,06,00,49,9.90
2015,12,06,00,51,9.90
2015,12,06,00,52,9.90
2015,12,06,00,53,9.90
2015,12,06,00,54,9.90
2015,12,06,00,56,9.90
2015,12,06,00,57,9.90
2015,12,06,00,58,9.90
2015,12,06,00,59,9.90
2015,12,06,01,01,9.90
2015,12,06,01,02,9.90
2015,12,06,01,03,9.90
2015,12,06,01,04,9.90
2015,12,06,01,06,9.90
2015,12,06,01,07,9.90
2015,12,06,01,08,9.90
2015,12,06,01,09,9.90
2015,12,06,01,11,9.90
2015,12,06,01,12,9.90
2015,12,06,01,13,9.90
2015,12,06,01,14,9.90
2015,12,06,01,16,9.90
2015,12,06,01,17,10.10
2015,12,06,01,18,10.10
2015,12,06,01,19,10.10
2015,12,06,01,21,10.10
2015,12,06,01,22,10.10
2015,12,06,01,23,10.10
2015,12,06,01,24,10.10
2015,12,06,01,26,10.10
2015,12,06,01,27,10.10
2015,12,06,01,28,10.10
2015,12,06,01,29,10.10
2015,12,06,01,31,10.10
2015,12,06,01,32,10.10
2015,12,06,01,33,10.10
2015,12,06,01,34,10.10
2015,12,06,01,36,10.10
2015,12,06,01,37,10.10
2015,12,06,01,38,9.90
2015,12,06,01,39,9.90
2015,12,06,01,41,9.90
2015,12,06,01,42,9.90
2015,12,06,01,43,9.90
2015,12,06,01,44,9.90
2015,12,06,01,46,9.90
2015,12,06,01,47,9.90
2015,12,06,01,48,9.90
2015,12,06,01,49,9.90
2015,12,06,01,51,9.90
2015,12,06,01,52,9.90
2015,12,06,01,53,9.90
2015,12,06,01,54,9.90
2015,12,06,01,56,9.90
2015,12,06,01,57,9.90
2015,12,06,01,58,9.90
2015,12,06,01,59,9.90
2015,12,06,02,01,9.90
2015,12,06,02,02,9.90
2015,12,06,02,03,9.90
2015,12,06,02,04,9.90
2015,12,06,02,06,9.90
2015,12,06,02,07,9.90
2015,12,06,02,08,9.90
2015,12,06,02,09,9.90
2015,12,06,02,11,9.90
2015,12,06,02,12,9.90
2015,12,06,02,13,9.90
2015,12,06,02,14,9.90
2015,12,06,02,16,10.10
2015,12,06,02,17,10.10
2015,12,06,02,18,10.10
2015,12,06,02,19,10.10
2015,12,06,02,21,9.90
2015,12,06,02,22,9.90
2015,12,06,02,23,10.10
2015,12,06,02,24,9.90
2015,12,06,02,25,9.90
2015,12,06,02,26,9.90
2015,12,06,02,27,9.90
2015,12,06,02,28,9.90
2015,12,06,02,29,10.10
2015,12,06,02,30,10.10
2015,12,06,02,31,10.10
2015,12,06,02,32,10.10
2015,12,06,02,33,10.10
2015,12,06,02,34,10.10
2015,12,06,02,35,10.10
2015,12,06,02,36,10.10
2015,12,06,02,37,10.10
2015,12,06,02,38,10.10
2015,12,06,02,39,10.10
2015,12,06,02,40,10.10
2015,12,06,02,41,10.10
2015,12,06,02,42,10.10
2015,12,06,02,43,10.10
2015,12,06,02,44,10.10
2015,12,06,02,45,10.10
2015,12,06,02,46,10.10
2015,12,06,02,47,10.10
2015,12,06,02,49,10.10
2015,12,06,02,51,10.10
2015,12,06,02,52,10.10
2015,12,06,02,53,10.10
2015,12,06,02,54,10.10
2015,12,06,02,56,10.10
2015,12,06,02,57,10.10
2015,12,06,02,58,10.10
2015,12,06,02,59,10.10
2015,12,06,03,01,10.10
2015,12,06,03,02,10.10
2015,12,06,03,03,10.10
2015,12,06,03,04,10.10
2015,12,06,03,06,10.10
2015,12,06,03,07,10.10
2015,12,06,03,08,10.10
2015,12,06,03,09,10.10
2015,12,06,03,11,10.10
2015,12,06,03,12,10.10
2015,12,06,03,13,10.10
2015,12,06,03,14,10.10
2015,12,06,03,16,9.90
2015,12,06,03,17,9.90
2015,12,06,03,18,9.90
2015,12,06,03,19,9.90
2015,12,06,03,21,9.90
2015,12,06,03,22,9.90
2015,12,06,03,23,9.90
2015,12,06,03,24,9.90
2015,12,06,03,26,9.90
2015,12,06,03,27,9.90
2015,12,06,03,28,9.90
2015,12,06,03,29,9.90
2015,12,06,03,31,9.90
2015,12,06,03,32,9.90
2015,12,06,03,33,9.90
2015,12,06,03,34,9.90
2015,12,06,03,36,9.90
2015,12,06,03,37,9.90
2015,12,06,03,38,9.90
2015,12,06,03,39,9.90
2015,12,06,03,41,9.90
2015,12,06,03,42,9.90
2015,12,06,03,43,9.90
2015,12,06,03,44,9.90
2015,12,06,03,46,9.90
2015,12,06,03,47,9.90
2015,12,06,03,48,9.90
2015,12,06,03,49,9.90
2015,12,06,03,51,9.90
2015,12,06,03,52,9.90
2015,12,06,03,53,9.90
2015,12,06,04,27,9.90
2015,12,06,04,28,9.90
2015,12,06,04,29,9.90
2015,12,06,04,31,9.90
2015,12,06,04,32,9.90
2015,12,06,04,33,9.90
2015,12,06,04,34,9.90
2015,12,06,04,36,9.90
2015,12,06,05,27,9.70
2015,12,06,05,28,9.70
2015,12,06,05,29,9.70
2015,12,06,05,31,9.70
2015,12,06,05,32,9.70
2015,12,06,05,33,9.70
2015,12,06,05,34,9.70
2015,12,06,05,36,9.70
2015,12,06,05,37,9.70
2015,12,06,05,38,9.70
2015,12,06,05,39,9.60
2015,12,06,05,41,9.60
2015,12,06,05,42,9.60
2015,12,06,05,43,9.60
2015,12,06,05,44,9.60
2015,12,06,05,46,9.60
2015,12,06,05,47,9.60
2015,12,06,05,48,9.60
2015,12,06,05,49,9.60
2015,12,06,05,51,9.60
2015,12,06,05,52,9.60
2015,12,06,05,53,9.60
2015,12,06,05,54,9.60
2015,12,06,05,56,9.60
2015,12,06,05,57,9.60
2015,12,06,05,58,9.60
2015,12,06,05,59,9.60
2015,12,06,06,01,9.60
2015,12,06,06,02,9.60
2015,12,06,06,03,9.60
2015,12,06,06,04,9.60
2015,12,06,06,06,9.60
2015,12,06,06,07,9.60
2015,12,06,06,08,9.60
2015,12,06,06,09,9.60
2015,12,06,06,11,9.60
2015,12,06,06,12,9.60
2015,12,06,06,13,9.60
2015,12,06,06,14,9.60
2015,12,06,06,15,9.60
2015,12,06,06,16,9.60
2015,12,06,06,17,9.60
2015,12,06,06,18,9.50
2015,12,06,06,19,9.50
2015,12,06,06,20,9.50
2015,12,06,06,21,9.50
2015,12,06,06,22,9.50
2015,12,06,06,23,9.50
2015,12,06,06,24,9.50
2015,12,06,06,25,9.50
2015,12,06,06,26,9.50
2015,12,06,06,27,9.50
2015,12,06,06,28,9.50
2015,12,06,06,29,9.50
2015,12,06,06,30,9.50
2015,12,06,06,31,9.50
2015,12,06,06,32,9.50
2015,12,06,06,34,9.50
2015,12,06,06,36,9.50
2015,12,06,06,37,9.50
2015,12,06,06,38,9.50
2015,12,06,06,39,9.50
2015,12,06,06,41,9.50
2015,12,06,06,42,9.50
2015,12,06,06,43,9.50
2015,12,06,06,44,9.50
2015,12,06,06,46,9.50
2015,12,06,06,47,9.50
2015,12,06,06,48,9.50
2015,12,06,06,49,9.50
2015,12,06,06,51,9.50
2015,12,06,06,52,9.50
2015,12,06,06,53,9.50
2015,12,06,06,54,9.50
2015,12,06,06,56,9.50
2015,12,06,06,57,9.50
2015,12,06,06,58,9.50
2015,12,06,06,59,9.50
2015,12,06,07,01,9.60
2015,12,06,07,02,9.60
2015,12,06,07,03,9.60
2015,12,06,07,04,9.60
2015,12,06,07,06,9.60
2015,12,06,07,07,9.60
2015,12,06,07,08,9.60
2015,12,06,07,09,9.60
2015,12,06,07,11,9.70
2015,12,06,07,12,9.70
2015,12,06,07,13,9.70
2015,12,06,07,14,9.70
2015,12,06,07,16,9.70
2015,12,06,07,17,9.70
2015,12,06,07,18,9.70
2015,12,06,07,19,9.70
2015,12,06,07,21,9.70
2015,12,06,07,22,9.70
2015,12,06,07,23,9.70
2015,12,06,07,24,9.70
2015,12,06,07,26,9.70
2015,12,06,07,27,9.70
2015,12,06,07,28,9.70
2015,12,06,07,29,9.70
2015,12,06,07,31,9.70
2015,12,06,07,32,9.70
2015,12,06,07,33,9.70
2015,12,06,07,34,9.70
2015,12,06,07,36,9.70
2015,12,06,07,37,9.70
2015,12,06,07,38,9.70
2015,12,06,07,39,9.70
2015,12,06,07,41,9.70
2015,12,06,07,42,9.70
2015,12,06,07,43,9.70
2015,12,06,07,44,9.70
2015,12,06,07,46,9.70
2015,12,06,07,47,9.70
2015,12,06,07,48,9.70
2015,12,06,07,49,9.70
2015,12,06,07,51,9.70
2015,12,06,07,52,9.70
2015,12,06,07,53,9.70
2015,12,06,07,54,9.70
2015,12,06,07,56,9.70
2015,12,06,07,57,9.60
2015,12,06,07,58,9.60
2015,12,06,07,59,9.60
2015,12,06,08,01,9.60
2015,12,06,08,02,9.60
2015,12,06,08,03,9.60
2015,12,06,08,04,9.60
2015,12,06,08,06,9.60
2015,12,06,08,07,9.60
2015,12,06,08,08,9.60
2015,12,06,08,09,9.60
2015,12,06,08,11,9.60
2015,12,06,08,12,9.60
2015,12,06,08,13,9.60
2015,12,06,08,14,9.60
2015,12,06,08,16,9.70
2015,12,06,08,17,9.70
2015,12,06,08,18,9.70
2015,12,06,08,19,9.70
2015,12,06,08,21,9.70
2015,12,06,08,22,9.70
2015,12,06,08,23,9.70
2015,12,06,08,24,9.70
2015,12,06,08,26,9.70
2015,12,06,08,27,9.70
2015,12,06,08,28,9.70
2015,12,06,08,29,9.70
2015,12,06,08,31,9.70
2015,12,06,08,32,9.70
2015,12,06,08,33,9.70
2015,12,06,08,34,9.70
2015,12,06,08,36,9.70
2015,12,06,08,37,9.70
2015,12,06,08,38,9.70
2015,12,06,08,39,9.70
2015,12,06,08,41,9.70
2015,12,06,08,42,9.70
2015,12,06,08,43,9.70
2015,12,06,08,44,9.70
2015,12,06,08,46,9.70
2015,12,06,08,47,9.70
2015,12,06,08,48,9.70
2015,12,06,08,49,9.70
2015,12,06,08,51,9.70
2015,12,06,08,52,9.70
2015,12,06,08,53,9.70
2015,12,06,08,54,9.70
2015,12,06,08,56,9.70
2015,12,06,08,57,9.70
2015,12,06,08,58,9.70
2015,12,06,08,59,9.70
2015,12,06,09,00,9.70
2015,12,06,09,01,9.80
2015,12,06,09,02,9.80
2015,12,06,09,03,9.80
2015,12,06,09,04,9.80
2015,12,06,09,06,9.80
2015,12,06,09,07,9.90
2015,12,06,09,08,9.90
2015,12,06,09,09,9.90
2015,12,06,09,10,9.90
2015,12,06,09,11,9.90
2015,12,06,09,12,9.90
2015,12,06,09,13,9.90
2015,12,06,09,14,9.90
2015,12,06,09,15,9.90
2015,12,06,09,16,9.90
2015,12,06,09,17,9.90
2015,12,06,09,18,9.90
2015,12,06,09,19,9.90
2015,12,06,09,20,9.90
2015,12,06,09,21,9.90
2015,12,06,09,22,9.80
2015,12,06,09,23,9.90
2015,12,06,09,24,9.90
2015,12,06,09,25,9.90
2015,12,06,09,27,9.90
2015,12,06,09,28,9.90
2015,12,06,09,29,9.90
2015,12,06,09,31,9.90
2015,12,06,09,32,9.90
2015,12,06,09,33,9.90
2015,12,06,09,34,9.90
2015,12,06,09,36,9.90
2015,12,06,09,37,9.90
2015,12,06,09,38,9.90
2015,12,06,09,39,10.10
2015,12,06,09,41,10.10
2015,12,06,09,42,10.10
2015,12,06,09,43,10.10
2015,12,06,09,44,10.10
2015,12,06,09,46,10.10
2015,12,06,09,47,10.10
2015,12,06,09,48,10.10
2015,12,06,09,49,10.20
2015,12,06,09,51,10.20
2015,12,06,09,52,10.20
2015,12,06,09,53,10.30
2015,12,06,09,54,10.30
2015,12,06,09,56,10.40
2015,12,06,09,57,10.40
2015,12,06,09,58,10.40
2015,12,06,09,59,10.40
2015,12,06,10,01,10.40
2015,12,06,10,02,10.40
2015,12,06,10,03,10.40
2015,12,06,10,04,10.40
2015,12,06,10,06,10.40
2015,12,06,10,07,10.40
2015,12,06,10,08,10.40
2015,12,06,10,09,10.40
2015,12,06,10,11,10.60
2015,12,06,10,12,10.60
2015,12,06,10,13,10.60
2015,12,06,10,14,10.60
2015,12,06,10,16,10.60
2015,12,06,10,17,10.60
2015,12,06,10,18,10.60
2015,12,06,10,19,10.60
2015,12,06,10,21,10.60
2015,12,06,10,22,10.60
2015,12,06,10,23,10.60
2015,12,06,10,24,10.60
2015,12,06,10,26,10.60
2015,12,06,10,27,10.60
2015,12,06,10,28,10.60
2015,12,06,10,29,10.70
2015,12,06,10,31,10.70
2015,12,06,10,32,10.70
2015,12,06,10,33,10.80
2015,12,06,10,34,10.80
2015,12,06,10,36,10.80
2015,12,06,10,37,10.90
2015,12,06,10,38,10.90
2015,12,06,10,39,10.90
2015,12,06,10,41,10.90
2015,12,06,10,42,10.90
2015,12,06,10,43,10.90
2015,12,06,10,44,10.90
2015,12,06,10,46,10.90
2015,12,06,10,47,10.90
2015,12,06,10,48,10.90
2015,12,06,10,49,10.90
2015,12,06,10,51,10.90
2015,12,06,10,52,10.80
2015,12,06,10,53,10.70
2015,12,06,10,54,10.70
2015,12,06,10,56,10.70
2015,12,06,10,57,10.70
2015,12,06,10,58,10.70
2015,12,06,10,59,10.70
2015,12,06,11,01,10.80
2015,12,06,11,02,10.80
2015,12,06,11,03,10.80
2015,12,06,11,04,10.80
2015,12,06,11,06,10.80
2015,12,06,11,07,10.90
2015,12,06,11,08,10.90
2015,12,06,11,09,10.90
2015,12,06,11,11,10.90
2015,12,06,11,12,10.90
2015,12,06,11,13,10.90
2015,12,06,11,14,10.90
2015,12,06,11,16,10.90
2015,12,06,11,17,10.90
2015,12,06,11,18,10.80
2015,12,06,11,19,10.80
2015,12,06,11,21,10.70
2015,12,06,11,22,10.60
2015,12,06,11,23,10.60
2015,12,06,11,24,10.60
2015,12,06,11,26,10.40
2015,12,06,11,27,10.40
2015,12,06,11,28,10.40
2015,12,06,11,29,10.30
2015,12,06,11,31,10.30
2015,12,06,11,32,10.30
2015,12,06,11,33,10.20
2015,12,06,11,34,10.20
2015,12,06,11,36,10.20
2015,12,06,11,37,10.20
2015,12,06,11,38,10.30
2015,12,06,11,39,10.30
2015,12,06,11,41,10.40
2015,12,06,11,42,10.40
2015,12,06,11,43,10.40
2015,12,06,11,44,10.40
2015,12,06,11,46,10.30
2015,12,06,11,47,10.20
2015,12,06,11,48,10.20
2015,12,06,11,49,10.20
2015,12,06,11,51,10.10
2015,12,06,11,52,10.10
2015,12,06,11,53,10.10
2015,12,06,11,54,10.10
2015,12,06,11,55,10.10
2015,12,06,11,56,10.10
2015,12,06,11,57,10.10
2015,12,06,11,58,10.10
2015,12,06,11,59,10.10
2015,12,06,12,00,10.10
2015,12,06,12,01,10.10
2015,12,06,12,02,10.10
2015,12,06,12,03,10.10
2015,12,06,12,04,10.10
2015,12,06,12,06,10.20
2015,12,06,12,07,10.20
2015,12,06,12,08,10.20
2015,12,06,12,09,10.20
2015,12,06,12,10,10.20
2015,12,06,12,11,10.20
2015,12,06,12,12,10.20
2015,12,06,12,13,10.20
2015,12,06,12,14,10.20
2015,12,06,12,15,10.20
2015,12,06,12,16,10.20
2015,12,06,12,17,10.20
2015,12,06,12,18,10.20
2015,12,06,12,19,10.20
2015,12,06,12,20,10.20
2015,12,06,12,22,10.20
2015,12,06,12,23,10.20
2015,12,06,12,24,10.20
2015,12,06,12,26,10.20
2015,12,06,12,27,10.20
2015,12,06,12,28,10.10
2015,12,06,12,29,10.10
2015,12,06,12,31,10.10
2015,12,06,12,32,10.10
2015,12,06,12,33,10.10
2015,12,06,12,34,10.10
2015,12,06,12,36,10.20
2015,12,06,12,37,10.20
2015,12,06,12,38,10.20
2015,12,06,12,39,10.20
2015,12,06,12,41,10.20
2015,12,06,12,42,10.20
2015,12,06,12,43,10.20
2015,12,06,12,44,10.20
2015,12,06,12,46,10.30
2015,12,06,12,47,10.30
2015,12,06,12,48,10.30
2015,12,06,12,49,10.30
2015,12,06,12,51,10.40
2015,12,06,12,52,10.40
2015,12,06,12,53,10.40
2015,12,06,12,54,10.40
2015,12,06,12,56,10.60
2015,12,06,12,57,10.60
2015,12,06,12,58,10.60
2015,12,06,12,59,10.60
2015,12,06,13,01,10.60
2015,12,06,13,02,10.60
2015,12,06,13,03,10.60
2015,12,06,13,04,10.60
2015,12,06,13,06,10.60
2015,12,06,13,07,10.60
2015,12,06,13,08,10.60
2015,12,06,13,09,10.60
2015,12,06,13,11,10.60
2015,12,06,13,12,10.60
2015,12,06,13,13,10.60
2015,12,06,13,14,10.60
2015,12,06,13,16,10.70
2015,12,06,13,17,10.70
2015,12,06,13,18,10.70
2015,12,06,13,19,10.70
2015,12,06,13,21,10.80
2015,12,06,13,22,10.90
2015,12,06,13,23,10.90
2015,12,06,13,24,10.90
2015,12,06,13,26,10.90
2015,12,06,13,27,10.90
2015,12,06,13,28,10.90
2015,12,06,13,29,11.10
2015,12,06,13,31,11.10
2015,12,06,13,32,10.90
2015,12,06,13,33,10.90
2015,12,06,13,34,10.90
2015,12,06,13,36,10.90
2015,12,06,13,37,10.90
2015,12,06,13,38,10.90
2015,12,06,13,39,10.90
2015,12,06,13,41,10.80
2015,12,06,13,42,10.80
2015,12,06,13,43,10.80
2015,12,06,13,44,10.70
2015,12,06,13,46,10.70
2015,12,06,13,47,10.60
2015,12,06,13,48,10.60
2015,12,06,13,49,10.60
2015,12,06,13,51,10.60
2015,12,06,13,52,10.70
2015,12,06,13,53,10.70
2015,12,06,13,54,10.70
2015,12,06,13,56,10.80
2015,12,06,13,57,10.80
2015,12,06,13,58,10.80
2015,12,06,13,59,10.80
2015,12,06,14,01,10.80
2015,12,06,14,02,10.80
2015,12,06,14,03,10.80
2015,12,06,14,04,10.80
2015,12,06,14,06,10.80
2015,12,06,14,07,10.80
2015,12,06,14,08,10.90
2015,12,06,14,09,10.90
2015,12,06,14,11,10.90
2015,12,06,14,12,10.90
2015,12,06,14,13,10.90
2015,12,06,14,14,10.90
2015,12,06,14,16,10.90
2015,12,06,14,17,10.90
2015,12,06,14,18,10.90
2015,12,06,14,19,10.90
2015,12,06,14,21,10.90
2015,12,06,14,22,10.90
2015,12,06,14,23,10.90
2015,12,06,14,24,11.10
2015,12,06,14,26,11.10
2015,12,06,14,27,11.10
2015,12,06,14,28,11.10
2015,12,06,14,29,11.10
2015,12,06,14,31,11.10
2015,12,06,14,32,11.10
2015,12,06,14,33,11.10
2015,12,06,14,34,11.10
2015,12,06,14,36,11.10
2015,12,06,14,37,11.10
2015,12,06,14,38,11.10
2015,12,06,14,39,11.10
2015,12,06,14,41,11.10
2015,12,06,14,42,11.10
2015,12,06,14,43,11.10
2015,12,06,14,44,11.10
2015,12,06,14,45,11.10
2015,12,06,14,46,11.10
2015,12,06,14,47,11.10
2015,12,06,14,48,11.10
2015,12,06,14,49,11.10
2015,12,06,14,50,11.10
2015,12,06,14,51,11.10
2015,12,06,14,52,11.10
2015,12,06,14,53,11.10
2015,12,06,14,54,11.10
2015,12,06,14,55,11.10
2015,12,06,14,56,11.10
2015,12,06,14,57,11.10
2015,12,06,14,58,11.10
2015,12,06,14,59,11.10
2015,12,06,15,00,11.10
2015,12,06,15,01,11.10
2015,12,06,15,02,11.10
2015,12,06,15,03,11.10
2015,12,06,15,04,11.10
2015,12,06,15,06,11.10
2015,12,06,15,07,10.90
2015,12,06,15,09,10.90
2015,12,06,15,11,10.90
2015,12,06,15,12,10.90
2015,12,06,15,13,10.90
2015,12,06,15,14,10.90
2015,12,06,15,16,10.90
2015,12,06,15,17,10.90
2015,12,06,15,18,10.90
2015,12,06,15,19,10.90
2015,12,06,15,21,10.90
2015,12,06,15,22,10.90
2015,12,06,15,23,10.90
2015,12,06,15,24,10.90
2015,12,06,15,26,10.90
2015,12,06,15,27,10.90
2015,12,06,15,28,10.90
2015,12,06,15,29,10.90
2015,12,06,15,31,10.90
2015,12,06,15,32,10.90
2015,12,06,15,33,10.90
2015,12,06,15,34,10.90
2015,12,06,15,36,10.90
2015,12,06,15,37,10.90
2015,12,06,15,38,10.90
2015,12,06,15,39,10.90
2015,12,06,15,41,10.80
2015,12,06,15,42,10.80
2015,12,06,15,43,10.80
2015,12,06,15,44,10.80
2015,12,06,15,46,10.80
2015,12,06,15,47,10.80
2015,12,06,15,48,10.80
2015,12,06,15,49,10.80
2015,12,06,15,51,10.80
2015,12,06,15,52,10.80
2015,12,06,15,53,10.80
2015,12,06,15,54,10.80
2015,12,06,15,56,10.80
2015,12,06,15,57,10.80
2015,12,06,15,58,10.70
2015,12,06,15,59,10.70
2015,12,06,16,01,10.70
2015,12,06,16,02,10.70
2015,12,06,16,03,10.60
2015,12,06,16,04,10.60
2015,12,06,16,06,10.60
2015,12,06,16,07,10.60
2015,12,06,16,08,10.60
2015,12,06,16,09,10.60
2015,12,06,16,11,10.60
2015,12,06,16,12,10.60
2015,12,06,16,13,10.60
2015,12,06,16,14,10.60
2015,12,06,16,16,10.60
2015,12,06,16,17,10.60
2015,12,06,16,18,10.60
2015,12,06,16,19,10.60
2015,12,06,16,21,10.60
2015,12,06,16,22,10.60
2015,12,06,16,23,10.60
2015,12,06,16,24,10.60
2015,12,06,16,26,10.60
2015,12,06,16,27,10.60
2015,12,06,16,28,10.70
2015,12,06,16,29,10.70
2015,12,06,16,31,10.70
2015,12,06,16,32,10.70
2015,12,06,16,33,10.70
2015,12,06,16,34,10.70
2015,12,06,16,36,10.70
2015,12,06,16,37,10.70
2015,12,06,16,38,10.70
2015,12,06,16,39,10.70
2015,12,06,16,41,10.70
2015,12,06,16,42,10.70
2015,12,06,16,43,10.70
2015,12,06,16,44,10.70
2015,12,06,16,46,10.80
2015,12,06,16,47,10.80
2015,12,06,16,48,10.80
2015,12,06,16,49,10.80
2015,12,06,16,51,10.80
2015,12,06,16,52,10.80
2015,12,06,16,53,10.70
2015,12,06,16,54,10.70
2015,12,06,16,56,10.70
2015,12,06,16,57,10.70
2015,12,06,16,58,10.70
2015,12,06,16,59,10.70
2015,12,06,17,01,10.70
2015,12,06,17,02,10.60
2015,12,06,17,03,10.60
2015,12,06,17,04,10.60
2015,12,06,17,06,10.60
2015,12,06,17,07,10.60
2015,12,06,17,08,10.60
2015,12,06,17,09,10.60
2015,12,06,17,11,10.60
2015,12,06,17,12,10.60
2015,12,06,17,13,10.60
2015,12,06,17,14,10.60
2015,12,06,17,16,10.60
2015,12,06,17,17,10.60
2015,12,06,17,18,10.60
2015,12,06,17,19,10.60
2015,12,06,17,20,10.60
2015,12,06,17,21,10.60
2015,12,06,17,22,10.60
2015,12,06,17,23,10.70
2015,12,06,17,24,10.70
2015,12,06,17,25,10.70
2015,12,06,17,26,10.70
2015,12,06,17,27,10.70
2015,12,06,17,28,10.70
2015,12,06,17,29,10.70
2015,12,06,17,30,10.70
2015,12,06,17,32,10.60
2015,12,06,17,33,10.60
2015,12,06,17,34,10.60
2015,12,06,17,36,10.60
2015,12,06,17,37,10.70
2015,12,06,17,38,10.70
2015,12,06,17,39,10.70
2015,12,06,17,41,10.80
2015,12,06,17,42,10.80
2015,12,06,17,43,10.80
2015,12,06,17,44,10.80
2015,12,06,17,46,10.80
2015,12,06,17,47,10.80
2015,12,06,17,48,10.80
2015,12,06,17,49,10.80
2015,12,06,17,51,10.80
2015,12,06,17,52,10.80
2015,12,06,17,53,10.80
2015,12,06,17,54,10.80
2015,12,06,17,56,10.80
2015,12,06,17,57,10.80
2015,12,06,17,58,10.80
2015,12,06,17,59,10.80
2015,12,06,18,01,10.80
2015,12,06,18,02,10.80
2015,12,06,18,03,10.80
2015,12,06,18,04,10.80
2015,12,06,18,06,10.80
2015,12,06,18,07,10.80
2015,12,06,18,08,10.90
2015,12,06,18,09,10.90
2015,12,06,18,11,10.90
2015,12,06,18,12,10.90
2015,12,06,18,13,10.90
2015,12,06,18,14,10.90
2015,12,06,18,16,10.90
2015,12,06,18,17,10.90
2015,12,06,18,18,10.80
2015,12,06,18,19,10.80
2015,12,06,18,21,10.80
2015,12,06,18,22,10.80
2015,12,06,18,23,10.80
2015,12,06,18,24,10.80
2015,12,06,18,26,10.80
2015,12,06,18,27,10.80
2015,12,06,18,28,10.90
2015,12,06,18,29,10.90
2015,12,06,18,31,10.90
2015,12,06,18,32,10.90
2015,12,06,18,33,10.90
2015,12,06,18,34,10.90
2015,12,06,18,36,10.90
2015,12,06,18,37,10.90
2015,12,06,18,38,10.90
2015,12,06,18,39,10.80
2015,12,06,18,41,10.80
2015,12,06,18,42,10.80
2015,12,06,18,43,10.80
2015,12,06,18,44,10.80
2015,12,06,18,46,10.90
2015,12,06,18,47,10.90
2015,12,06,18,48,10.90
2015,12,06,18,49,10.90
2015,12,06,18,51,10.90
2015,12,06,18,52,10.90
2015,12,06,18,53,10.90
2015,12,06,18,54,10.90
2015,12,06,18,56,10.90
2015,12,06,18,57,10.90
2015,12,06,18,58,10.90
2015,12,06,18,59,10.90
2015,12,06,19,01,10.90
2015,12,06,19,02,10.90
2015,12,06,19,03,10.90
2015,12,06,19,04,10.90
2015,12,06,19,06,10.90
2015,12,06,19,07,10.90
2015,12,06,19,08,10.90
2015,12,06,19,09,10.90
2015,12,06,19,11,10.90
2015,12,06,19,12,10.90
2015,12,06,19,13,10.90
2015,12,06,19,14,10.90
2015,12,06,19,16,10.90
2015,12,06,19,17,10.90
2015,12,06,19,18,10.90
2015,12,06,19,19,10.90
2015,12,06,19,21,10.90
2015,12,06,19,22,10.90
2015,12,06,19,23,10.90
2015,12,06,19,24,10.90
2015,12,06,19,26,10.90
2015,12,06,19,27,10.90
2015,12,06,19,28,10.90
2015,12,06,19,29,10.90
2015,12,06,19,31,10.80
2015,12,06,19,32,10.80
2015,12,06,19,33,10.80
2015,12,06,19,34,10.80
2015,12,06,19,36,10.70
2015,12,06,19,37,10.70
2015,12,06,19,38,10.70
2015,12,06,19,39,10.70
2015,12,06,19,41,10.70
2015,12,06,19,42,10.60
2015,12,06,19,43,10.60
2015,12,06,19,44,10.60
2015,12,06,19,45,10.60
2015,12,06,19,46,10.60
2015,12,06,19,47,10.60
2015,12,06,19,48,10.60
2015,12,06,19,49,10.60
2015,12,06,19,50,10.60
2015,12,06,19,51,10.60
2015,12,06,19,52,10.70
2015,12,06,19,53,10.70
2015,12,06,19,54,10.70
2015,12,06,19,55,10.70
2015,12,06,19,56,10.70
2015,12,06,19,57,10.80
2015,12,06,19,58,10.80
2015,12,06,19,59,10.80
2015,12,06,20,00,10.80
2015,12,06,20,01,10.90
2015,12,06,20,02,10.90
2015,12,06,20,03,10.90
2015,12,06,20,04,10.90
2015,12,06,20,06,10.90
2015,12,06,20,07,10.90
2015,12,06,20,08,10.90
2015,12,06,20,09,10.90
2015,12,06,20,10,10.90
2015,12,06,20,11,10.90
2015,12,06,20,13,10.90
2015,12,06,20,14,10.90
2015,12,06,20,16,10.90
2015,12,06,20,17,10.90
2015,12,06,20,18,10.80
2015,12,06,20,19,10.80
2015,12,06,20,21,10.80
2015,12,06,20,22,10.80
2015,12,06,20,23,10.90
2015,12,06,20,24,10.90
2015,12,06,20,26,10.80
2015,12,06,20,27,10.80
2015,12,06,20,28,10.80
2015,12,06,20,29,10.80
2015,12,06,20,31,10.80
2015,12,06,20,32,10.80
2015,12,06,20,33,10.90
2015,12,06,20,34,10.90
2015,12,06,20,36,10.90
2015,12,06,20,37,10.90
2015,12,06,20,38,10.90
2015,12,06,20,39,10.90
2015,12,06,20,41,10.90
2015,12,06,20,42,10.90
2015,12,06,20,43,10.90
2015,12,06,20,44,10.90
2015,12,06,20,46,10.90
2015,12,06,20,47,10.90
2015,12,06,20,48,10.90
2015,12,06,20,49,10.90
2015,12,06,20,51,10.90
2015,12,06,20,52,10.90
2015,12,06,20,53,10.90
2015,12,06,20,54,10.90
2015,12,06,20,56,10.90
2015,12,06,20,57,10.90
2015,12,06,20,58,10.90
2015,12,06,20,59,10.90
2015,12,06,21,01,10.90
2015,12,06,21,02,10.90
2015,12,06,21,03,10.90
2015,12,06,21,04,10.90
2015,12,06,21,06,10.90
2015,12,06,21,07,10.90
2015,12,06,21,08,10.90
2015,12,06,21,09,10.90
2015,12,06,21,11,10.90
2015,12,06,21,12,10.90
2015,12,06,21,13,10.90
2015,12,06,21,14,10.90
2015,12,06,21,16,10.90
2015,12,06,21,17,10.90
2015,12,06,21,18,10.90
2015,12,06,21,19,10.90
2015,12,06,21,21,10.90
2015,12,06,21,22,10.90
2015,12,06,21,23,10.90
2015,12,06,21,24,10.90
2015,12,06,21,26,10.90
2015,12,06,21,27,10.90
2015,12,06,21,28,10.90
2015,12,06,21,29,10.90
2015,12,06,21,31,10.90
2015,12,06,21,32,10.80
2015,12,06,21,33,10.80
2015,12,06,21,34,10.80
2015,12,06,21,36,10.80
2015,12,06,21,37,10.80
2015,12,06,21,38,10.80
2015,12,06,21,39,10.80
2015,12,06,21,41,10.80
2015,12,06,21,42,10.80
2015,12,06,21,43,10.80
2015,12,06,21,44,10.80
2015,12,06,21,46,10.80
2015,12,06,21,47,10.80
2015,12,06,21,48,10.80
2015,12,06,21,49,10.80
2015,12,06,21,51,10.80
2015,12,06,21,52,10.80
2015,12,06,21,53,10.70
2015,12,06,21,54,10.70
2015,12,06,21,56,10.70
2015,12,06,21,57,10.70
2015,12,06,21,58,10.70
2015,12,06,21,59,10.70
2015,12,06,22,01,10.70
2015,12,06,22,02,10.70
2015,12,06,22,03,10.70
2015,12,06,22,04,10.70
2015,12,06,22,06,10.60
2015,12,06,22,07,10.60
2015,12,06,22,08,10.60
2015,12,06,22,09,10.60
2015,12,06,22,11,10.40
2015,12,06,22,12,10.40
2015,12,06,22,13,10.40
2015,12,06,22,14,10.40
2015,12,06,22,16,10.40
2015,12,06,22,17,10.40
2015,12,06,22,18,10.40
2015,12,06,22,19,10.40
2015,12,06,22,21,10.40
2015,12,06,22,22,10.40
2015,12,06,22,23,10.40
2015,12,06,22,24,10.40
2015,12,06,22,26,10.40
2015,12,06,22,27,10.40
2015,12,06,22,28,10.40
2015,12,06,22,29,10.40
2015,12,06,22,31,10.30
2015,12,06,22,32,10.30
2015,12,06,22,33,10.30
2015,12,06,22,34,10.30
2015,12,06,22,35,10.30
2015,12,06,22,36,10.30
2015,12,06,22,37,10.30
2015,12,06,22,38,10.30
2015,12,06,22,39,10.30
2015,12,06,22,41,10.30
2015,12,06,22,42,10.30
2015,12,06,22,43,10.30
2015,12,06,22,44,10.30
2015,12,06,22,45,10.30
2015,12,06,22,46,10.30
2015,12,06,22,47,10.30
2015,12,06,22,48,10.30
2015,12,06,22,49,10.30